SCP
0 0 0 0 0 0 0 0 0 0 0 0 0 0 0 0 0 0 0 0 0 0 0 0 0 0 0 0 0 0 0 0 0 0 0 0 0 0 1 1 1 1 1 1
0 0 0 0 0 0 0 0 0 0 0 0 0 0 0 0 0 0 0 0 0 0 0 0 0 0 0 0 0 0 0 0 0 0 0 0 0 0 0 1 1 1 1 1
0 0 0 0 0 0 0 0 0 0 0 0 0 0 0 0 0 0 0 0 0 0 0 0 0 0 0 0 0 0 0 0 0 0 0 0 0 0 0 0 1 1 1 1
0 0 0 0 0 0 0 0 0 0 0 0 0 0 0 0 0 0 0 0 0 0 0 0 0 0 0 0 0 0 0 0 0 0 0 0 0 0 0 0 1 1 1 1
0 0 0 0 0 0 0 0 0 0 0 0 0 0 0 0 0 0 0 0 0 0 0 0 0 0 0 0 0 0 0 0 0 0 0 0 0 0 0 0 0 1 1 1
0 0 0 0 0 0 -0 0 0 0 0 0 0 0 0 0 0 0 0 0 0 0 0 0 0 0 0 0 0 0 0 0 0 0 0 0 0 0 0 0 0 0 0 1
0 0 0 0 0 0 -0 0 0 0 0 0 0 0 0 0 0 0 0 0 0 0 0 0 0 0 0 0 0 0 0 0 0 0 0 0 0 0 0 0 0 0 0 0
0 0 0 0 0 0 -0 0 0 0 0 0 0 0 0 0 0 0 0 0 0 0 0 0 0 0 0 0 0 0 0 0 0 0 0 0 0 0 0 0 0 0 0 0
0 0 0 0 0 0 -0 0 0 0 0 0 0 0 0 0 0 0 0 0 0 0 0 0 0 0 0 0 0 0 0 0 0 0 0 0 0 0 0 0 0 0 0 0
0 0 0 0 0 0 -0 -0 0 0 0 0 0 0 0 0 0 0 0 0 0 0 0 0 0 0 0 0 0 0 0 0 0 0 0 0 0 0 0 0 0 0 0 0
0 -0 -0 -0 0 0 0 0 0 0 0 0 0 0 0 0 0 0 0 0 0 0 0 0 0 0 0 0 0 0 0 0 0 0 0 0 0 0 0 0 0 0 0 0
0 -0 -0 -0 -0 0 0 0 0 0 0 0 0 0 0 0 0 0 0 0 0 0 0 0 0 0 0 0 0 0 0 0 0 0 0 0 0 0 0 0 0 0 0 0
0 -0 -0 -0 -0 0 0 0 0 0 0 0 0 0 0 0 0 0 0 0 0 0 0 0 0 0 0 0 0 0 0 0 0 0 0 0 0 0 0 0 0 0 0 0
0 -0 -0 -0 -0 0 0 0 0 0 0 0 0 0 0 0 0 0 0 0 0 0 0 0 0 0 0 0 0 0 0 0 0 0 0 0 0 0 0 0 0 0 0 0
0 0 0 0 0 0 0 0 0 0 0 0 0 0 0 0 0 0 0 0 0 0 0 0 0 0 0 0 0 0 0 0 0 0 0 0 0 0 0 0 0 0 0 0
0 0 0 0 0 0 0 0 0 0 0 0 0 0 0 0 0 0 0 0 0 0 0 0 0 0 0 0 0 0 0 0 0 0 0 0 0 0 0 0 0 0 0 0
0 0 0 0 0 0 0 0 0 0 0 0 0 0 0 0 0 0 0 0 0 0 0 0 0 0 0 0 0 0 0 0 0 0 0 0 0 0 0 0 0 0 0 0
0 0 0 0 0 0 0 0 0 0 0 0 0 0 0 0 0 0 0 0 0 0 0 0 0 0 0 0 0 0 0 0 0 0 0 0 0 0 0 0 0 0 0 0
0 0 0 0 0 0 0 0 0 0 0 0 0 0 0 0 0 0 0 0 0 0 0 0 0 0 0 0 0 0 0 0 0 0 0 0 0 0 0 0 0 0 0 0
0 0 0 0 0 0 0 0 0 0 0 0 0 0 0 0 0 0 0 0 0 0 0 0 0 0 0 0 0 0 0 0 0 0 0 0 0 0 0 0 0 0 0 0
0 0 0 0 0 0 0 0 0 0 0 0 0 0 0 0 0 0 0 0 0 -0 0 0 0 0 0 0 0 0 0 0 0 0 0 0 0 0 0 0 0 0 0 0
0 0 0 0 0 0 0 0 0 0 0 0 0 0 0 0 0 0 0 0 0 0 0 0 0 0 0 0 0 0 0 0 0 0 0 0 0 0 0 0 0 0 0 0
0 0 0 0 0 0 0 0 0 0 0 0 0 0 0 0 0 0 0 0 0 0 0 0 0 0 0 0 0 0 0 0 0 0 0 0 0 0 0 0 0 0 0 0
0 0 0 0 0 0 0 0 0 0 0 0 0 0 0 0 0 0 0 0 0 0 0 0 0 0 0 0 0 0 0 0 0 0 0 0 0 0 0 0 0 0 0 0
0 0 0 0 0 0 0 0 0 0 0 0 0 0 0 0 0 0 0 0 0 0 0 0 0 0 0 0 0 0 0 0 0 0 0 0 0 0 0 0 0 0 0 0
0 0 0 0 0 0 0 0 0 0 0 0 0 0 0 0 0 0 0 0 0 0 0 0 0 0 0 0 0 0 0 0 0 0 0 0 0 0 0 0 0 0 0 0
Wind_Speed
3 4 5 8 8 9 11 12 10 7 5 3 3 4 7 6 6 8 9 10 10 11 12 12 11 12 11 10 10 10 10 8 6 4 4 4 4 3 3 4 5 5 5 5
5 4 7 6 6 8 11 11 8 6 6 3 1 3 7 5 6 8 10 11 12 12 12 11 12 13 12 10 10 11 10 9 7 5 5 5 5 4 5 4 4 5 6 7
6 8 4 6 6 9 11 8 10 8 2 3 4 4 7 6 6 8 9 10 12 12 13 13 12 11 11 11 11 11 10 10 8 8 5 6 5 4 4 5 4 4 5 6
5 4 4 7 6 8 8 9 8 8 6 5 5 2 8 5 6 7 8 9 10 10 10 11 11 11 12 12 11 11 11 11 9 8 6 7 6 6 6 5 4 5 5 5
6 5 7 7 7 7 7 8 8 9 9 8 6 3 7 4 5 7 8 8 8 9 9 9 9 9 10 10 10 9 10 10 9 9 8 6 6 5 5 5 5 5 4 4
7 4 5 6 4 3 6 9 10 8 8 7 3 1 6 4 6 7 8 8 8 8 8 8 8 8 8 8 9 9 9 9 9 9 8 7 7 7 7 6 5 4 3 3
7 6 5 4 8 4 6 7 5 4 4 0 3 2 6 6 5 5 6 7 7 6 7 7 7 8 8 8 9 8 9 9 9 9 9 8 8 7 7 7 5 5 3 3
7 7 5 5 6 6 8 6 6 6 3 3 3 4 7 5 4 3 5 6 7 6 6 6 6 6 6 6 7 7 8 8 8 8 8 7 8 6 5 6 6 5 4 3
5 8 5 3 4 5 8 7 6 6 11 4 6 8 7 5 4 3 5 6 6 6 6 6 6 6 6 5 5 6 6 7 7 8 7 7 8 7 7 7 7 5 5 4
6 4 5 3 5 5 2 5 6 6 6 5 0 4 5 4 2 2 4 5 5 6 6 6 5 5 5 4 4 5 5 6 7 7 6 6 7 6 6 7 7 7 7 6
7 3 7 5 1 5 5 3 4 5 3 3 3 4 5 4 2 2 3 3 4 4 4 4 4 4 4 5 5 5 5 6 6 6 6 6 6 6 6 6 7 7 7 7
3 7 3 7 6 2 2 4 6 5 6 3 2 4 5 4 2 1 1 2 2 2 3 2 3 3 3 4 4 5 5 5 5 5 6 6 6 7 7 7 7 7 8 8
6 6 1 6 5 4 3 1 3 5 5 3 2 4 5 3 3 1 1 1 2 2 2 2 2 2 2 2 3 4 5 5 4 5 5 6 6 7 7 8 8 7 8 9
4 6 4 6 5 1 1 2 2 6 5 5 2 3 6 5 3 2 2 2 2 2 2 3 2 1 1 1 2 3 3 4 4 5 5 6 6 6 6 7 8 8 8 9
5 7 1 1 0 3 5 5 5 7 7 6 5 2 0 4 3 3 3 3 3 2 3 4 4 3 1 1 1 2 2 3 3 4 4 5 5 6 6 6 7 7 8 10
4 7 5 6 6 6 9 9 8 8 7 7 5 4 3 5 4 4 4 3 2 2 3 4 5 5 4 1 1 2 2 2 3 4 4 5 5 6 6 5 6 6 6 7
5 6 6 6 5 6 9 6 9 8 6 5 6 2 7 6 6 4 3 2 2 1 2 3 4 3 3 2 1 2 2 1 3 4 4 4 5 5 6 6 6 6 6 6
5 5 4 7 6 6 5 4 1 4 6 5 5 2 4 5 4 3 3 3 3 1 2 3 4 4 3 4 3 1 3 2 4 5 5 4 5 5 6 6 6 6 5 5
5 5 5 4 5 7 6 5 2 4 7 9 9 7 7 6 6 7 8 6 3 0 1 2 3 4 4 5 5 4 3 4 5 5 5 5 5 5 5 6 6 5 4 4
4 5 5 5 5 3 7 8 4 2 5 6 10 10 9 8 5 6 9 7 4 2 1 2 4 4 4 4 5 4 4 6 6 5 4 4 4 5 5 5 5 4 4 4
5 5 6 6 6 2 8 8 4 2 3 3 6 9 10 9 5 4 10 7 5 3 1 1 3 2 2 3 5 4 6 6 5 4 4 4 4 3 4 4 4 3 4 3
5 4 5 4 5 1 8 6 5 3 1 1 3 6 9 8 6 7 7 7 5 5 3 2 3 2 0 0 3 4 5 5 4 3 3 3 4 4 4 2 3 3 4 4
4 3 2 2 2 5 7 7 5 3 5 3 3 5 7 7 8 8 7 6 5 5 5 4 2 2 3 1 2 3 3 2 3 3 3 1 3 3 1 3 4 4 4 4
4 3 2 4 5 4 8 10 7 5 5 5 2 5 7 7 7 8 7 6 6 5 4 4 3 4 2 3 2 0 1 1 2 2 1 1 2 2 2 2 3 3 4 4
4 2 3 6 8 7 4 7 7 7 7 6 4 5 7 7 7 8 7 7 6 5 4 4 4 3 2 2 3 3 2 2 1 2 2 2 3 1 1 3 2 3 3 2
8 8 6 5 5 4 5 2 3 6 8 8 6 6 7 8 8 8 7 7 6 6 5 5 5 5 5 3 2 3 3 2 3 3 2 2 2 2 1 2 3 2 2 4
Wind_Direction
260 281 36 17 360 328 312 300 300 100 97 34 72 102 99 64 27 17 10 12 9 8 4 7 359 357 352 348 340 330 327 327 325 321 314 310 301 295 284 264 250 227 222 227
213 76 40 348 320 306 297 297 311 99 83 0 220 143 107 81 51 37 15 9 9 3 0 1 1 1 351 345 339 333 333 333 332 323 314 302 298 291 281 275 266 247 229 220
55 54 11 320 326 338 314 346 350 347 29 258 242 180 129 116 69 48 26 15 9 4 0 358 1 359 353 352 346 339 340 338 335 330 322 314 305 293 285 285 281 267 254 236
68 53 331 314 12 355 333 22 337 307 283 244 211 214 130 120 72 43 28 18 12 9 4 4 3 359 357 355 351 347 347 346 344 337 327 319 307 298 293 291 286 283 269 257
95 34 356 356 16 341 330 330 295 279 269 268 230 227 126 106 40 29 25 16 16 11 8 8 4 359 360 357 357 353 354 353 350 346 339 329 320 307 303 300 296 292 284 275
91 76 36 356 314 269 288 272 251 244 256 250 226 265 108 62 27 16 18 16 17 9 8 9 8 359 0 2 1 359 2 360 356 354 352 346 336 332 331 326 315 308 304 294
161 141 113 353 316 222 263 297 285 228 214 211 89 87 89 73 49 25 19 19 15 14 11 8 8 0 1 4 2 360 1 358 357 357 357 354 349 348 348 340 330 325 321 312
200 133 78 33 8 334 318 307 324 318 327 146 169 92 105 97 89 48 43 27 12 16 15 10 9 4 2 4 0 359 360 358 357 0 359 1 1 359 358 354 348 347 342 329
343 97 108 65 358 338 326 344 345 297 294 294 127 117 133 144 108 65 45 28 15 12 14 13 8 7 5 4 359 356 359 0 358 359 358 5 6 6 4 1 358 355 348 352
321 105 118 132 229 184 321 317 313 303 340 334 319 124 121 121 66 58 52 27 15 11 8 10 1 3 5 0 360 2 9 7 1 359 4 10 6 5 7 4 4 359 356 3
300 254 150 187 27 12 337 311 323 293 272 313 341 75 73 85 74 32 50 29 7 2 357 356 356 2 8 1 11 8 14 15 6 360 359 7 8 3 10 8 3 6 6 12
339 305 156 115 90 52 13 358 337 329 346 338 307 100 95 102 113 78 47 21 354 345 333 338 359 359 10 5 10 14 15 13 8 1 2 11 13 11 16 11 5 11 14 14
349 293 253 146 154 188 201 78 315 296 280 280 325 111 135 148 153 156 124 338 308 305 332 351 349 344 12 10 11 29 19 6 6 6 9 14 17 16 17 13 7 16 20 19
313 276 330 360 29 33 200 183 252 291 294 320 23 109 164 170 171 179 192 236 280 299 3 1 338 336 58 53 27 41 28 3 9 18 16 13 18 20 18 19 14 18 22 26
264 286 1 39 317 279 279 258 231 252 286 306 0 6 117 140 157 180 208 234 274 328 16 4 354 10 47 91 82 82 47 9 12 29 25 14 15 22 17 23 21 23 26 30
251 293 291 254 216 250 268 258 243 243 257 269 285 274 133 124 153 194 210 223 268 350 16 4 5 12 0 21 89 120 85 27 18 41 41 25 20 19 15 25 24 26 34 31
231 272 304 299 153 256 262 242 224 225 229 249 263 255 138 164 192 207 204 208 271 343 10 9 1 357 329 356 61 90 93 65 46 51 47 37 29 21 17 20 23 26 34 35
301 302 296 287 270 274 89 68 33 238 236 223 240 228 162 188 173 186 207 209 255 304 14 14 348 334 347 16 16 98 131 97 67 53 40 39 43 27 20 16 26 27 23 29
301 304 287 288 311 290 144 142 167 232 260 226 210 211 184 184 186 203 200 197 213 245 12 3 341 331 21 20 354 343 85 82 70 58 44 35 41 36 24 19 19 24 16 14
249 279 278 292 292 314 99 112 124 256 269 215 189 192 184 178 219 221 172 168 177 164 24 4 321 347 30 3 329 324 69 76 67 53 49 39 41 47 33 21 14 12 10 2
192 216 235 261 275 314 113 124 149 244 13 56 177 183 184 189 215 126 139 153 162 159 179 290 306 355 38 349 323 346 64 72 77 59 53 42 26 59 64 21 2 9 0 351
213 221 217 232 256 109 134 155 205 269 23 268 204 187 185 187 180 133 148 154 165 176 188 231 284 323 326 331 327 12 70 83 97 94 68 61 54 30 38 19 358 7 358 355
215 281 331 306 356 126 186 209 233 279 299 284 189 187 183 185 179 161 166 169 183 196 191 194 236 281 265 121 46 11 74 103 138 144 138 145 133 125 57 10 17 19 14 8
193 158 263 288 282 250 205 212 236 241 253 283 215 188 187 191 186 174 175 180 190 206 204 182 219 250 243 119 135 132 90 200 191 136 139 164 88 93 99 69 42 40 26 13
340 153 232 260 271 269 221 200 221 233 228 243 235 203 193 191 193 184 186 188 189 200 194 179 223 256 288 229 188 160 149 263 225 171 197 165 130 115 93 104 75 66 88 76
267 240 219 247 322 351 360 71 204 230 228 226 224 216 198 193 199 195 194 189 187 196 198 194 208 219 235 221 175 142 146 233 255 219 181 151 153 148 150 148 139 67 105 142